Weather reports worldwide

Advertisment
Ploce, Croatia (14462): temperature & dewpoint: 20.03.2019 20:00:00 - 26.03.2019 20:00:00 (CET)Ploce, Croatia (14462): wind speed & gusts: 20.03.2019 20:00:00 - 26.03.2019 20:00:00 (CET)Ploce, Croatia (14462): wind direction: 20.03.2019 20:00:00 - 26.03.2019 20:00:00 (CET)Ploce, Croatia (14462): reduced air pressure: 20.03.2019 20:00:00 - 26.03.2019 20:00:00 (CET)Ploce, Croatia (14462): visibility: 20.03.2019 20:00:00 - 26.03.2019 20:00:00 (CET)
Date & Time tt [°C] td [°C] ff [km/h] ff [kn] fx [km/h] fx [kn] dd ppp [hPa] vv [km]
26.03.2019 20:00:00 - - - - - - - - -
26.03.2019 19:00:00 8,4 2,0 29 16 - - NNE 1017,6 30
26.03.2019 18:00:00 7,9 2,4 - - - - - 1017,8 -
26.03.2019 17:00:00 7,0 4,0 - - - - - 1017,9 -
26.03.2019 16:00:00 6,0 4,7 25 14 - - N 1017,7 -
26.03.2019 15:00:00 5,8 4,7 40 21 - - N 1016,9 -
26.03.2019 14:00:00 8,8 2,8 43 23 65 35 N 1016,0 30
26.03.2019 13:00:00 9,2 3,5 43 23 - - NNW 1015,7 30
26.03.2019 12:00:00 10,3 1,0 40 21 61 33 NNE 1015,3 30
26.03.2019 11:00:00 10,2 1,7 36 19 65 35 N 1015,3 30
26.03.2019 10:00:00 11,6 0,3 32 18 - - NNE 1014,9 30
26.03.2019 09:00:00 12,3 -1,8 40 21 68 37 NNE 1013,8 30
26.03.2019 08:00:00 12,1 -1,7 32 18 54 29 NNE 1013,0 30
26.03.2019 07:00:00 11,1 -0,1 36 19 - - NNE 1012,7 30
26.03.2019 06:00:00 10,9 -2,5 - - - - - 1012,2 -
26.03.2019 05:00:00 11,3 -2,1 36 19 - - NNE 1011,6 -
26.03.2019 04:00:00 11,7 -1,4 - - - - - 1011,0 -
26.03.2019 03:00:00 - - - - - - - - -
26.03.2019 02:00:00 - - - - - - - - -
26.03.2019 01:00:00 13,4 3,0 18 10 - - NNE 1010,3 -
26.03.2019 00:00:00 - - - - - - - - -
25.03.2019 23:00:00 - - - - - - - - -
25.03.2019 22:00:00 10,9 7,1 7 4 - - WSW 1009,7 -
25.03.2019 21:00:00 12,1 7,7 7 4 - - NNW 1009,9 30
25.03.2019 20:00:00 12,8 8,1 7 4 - - NW 1010,0 30
25.03.2019 19:00:00 14,6 8,1 7 4 - - SE 1010,1 30
25.03.2019 18:00:00 15,8 8,1 11 6 - - SSE 1010,0 -
25.03.2019 17:00:00 17,2 8,1 14 8 - - S 1010,1 -
25.03.2019 16:00:00 18,2 8,2 18 10 - - S 1010,6 -
25.03.2019 15:00:00 19,4 7,9 11 6 - - SSW 1011,2 -
25.03.2019 14:00:00 19,8 7,7 18 10 - - S 1012,3 30
25.03.2019 13:00:00 19,3 8,4 18 10 - - SSE 1012,9 30
25.03.2019 12:00:00 19,4 7,8 18 10 - - SSE 1013,7 30
25.03.2019 11:00:00 18,5 7,5 14 8 - - SSE 1014,5 30
25.03.2019 10:00:00 17,5 2,8 7 4 - - ESE 1014,7 30
25.03.2019 09:00:00 13,3 4,0 7 4 - - ENE 1015,4 30
25.03.2019 08:00:00 11,6 4,0 7 4 - - E 1015,6 30
25.03.2019 07:00:00 9,6 3,5 4 2 - - E 1015,6 30
25.03.2019 06:00:00 6,3 4,4 7 4 - - E 1015,8 -
25.03.2019 05:00:00 7,0 4,5 7 4 - - E 1015,8 -
25.03.2019 04:00:00 7,4 4,1 0 0 - - N 1016,1 -
25.03.2019 03:00:00 - - - - - - - - -
25.03.2019 02:00:00 - - - - - - - - -
25.03.2019 01:00:00 8,2 6,4 4 2 - - ENE 1017,2 -
25.03.2019 00:00:00 - - - - - - - - -
24.03.2019 23:00:00 - - - - - - - - -
24.03.2019 22:00:00 10,3 6,7 0 0 - - N 1018,3 -
24.03.2019 21:00:00 12,6 8,7 7 4 - - E 1018,6 30
24.03.2019 20:00:00 14,1 6,9 4 2 - - ESE 1018,4 30
24.03.2019 19:00:00 16,8 6,0 7 4 - - W 1018,0 30
24.03.2019 18:00:00 17,1 5,1 4 2 - - S 1017,9 -
24.03.2019 17:00:00 18,2 3,7 11 6 - - NNW 1018,2 -
24.03.2019 16:00:00 20,0 -0,6 - - - - - 1018,3 -
24.03.2019 15:00:00 20,9 -1,6 18 10 - - W 1018,7 -
24.03.2019 14:00:00 22,2 -2,6 22 12 - - W 1019,2 30
24.03.2019 13:00:00 22,8 -4,7 14 8 - - WSW 1020,0 30
24.03.2019 12:00:00 21,4 0,2 14 8 - - SW 1020,6 30
24.03.2019 11:00:00 20,2 2,2 11 6 - - SSW 1021,2 30
24.03.2019 10:00:00 19,5 2,2 7 4 - - S 1021,5 30
24.03.2019 09:00:00 17,4 3,2 4 2 - - SSE 1021,6 30
24.03.2019 08:00:00 14,4 3,7 7 4 - - SSE 1021,7 30
24.03.2019 07:00:00 11,6 2,7 4 2 - - SE 1021,6 30
24.03.2019 06:00:00 7,5 3,0 4 2 - - W 1021,8 -
24.03.2019 05:00:00 8,6 2,7 4 2 - - N 1021,5 -
24.03.2019 04:00:00 10,3 2,9 4 2 - - ENE 1021,3 -
24.03.2019 03:00:00 - - - - - - - - -
24.03.2019 02:00:00 - - - - - - - - -
24.03.2019 01:00:00 10,2 5,8 7 4 - - ESE 1021,7 -
24.03.2019 00:00:00 - - - - - - - - -
23.03.2019 23:00:00 - - - - - - - - -
23.03.2019 22:00:00 10,9 6,5 4 2 - - W 1021,7 -
23.03.2019 21:00:00 12,2 6,3 4 2 - - SSE 1021,1 30
23.03.2019 20:00:00 14,1 5,2 7 4 - - NNE 1020,9 30
23.03.2019 19:00:00 15,6 5,5 7 4 - - NNE 1020,3 30
23.03.2019 18:00:00 16,6 5,0 18 10 - - NNW 1020,2 -
23.03.2019 17:00:00 17,6 3,9 11 6 - - NNW 1019,9 -
23.03.2019 16:00:00 17,7 4,0 - - - - - 1019,8 -
23.03.2019 15:00:00 19,6 0,1 - - - - - 1020,1 -
23.03.2019 14:00:00 21,0 -2,1 25 14 - - WNW 1020,7 30
23.03.2019 13:00:00 20,5 -0,6 22 12 - - W 1021,5 30
23.03.2019 12:00:00 20,3 0,4 18 10 - - W 1021,9 30
23.03.2019 11:00:00 20,0 1,2 14 8 - - SW 1022,3 30
23.03.2019 10:00:00 19,4 0,1 18 10 - - NNE 1023,1 30
23.03.2019 09:00:00 17,7 -1,0 11 6 - - N 1023,5 -
23.03.2019 08:00:00 15,5 -0,5 7 4 - - NE 1023,5 30
23.03.2019 07:00:00 12,1 0,9 7 4 - - SW 1023,4 30
23.03.2019 06:00:00 9,7 -0,4 4 2 - - WNW 1023,5 -
23.03.2019 05:00:00 11,1 -0,6 7 4 - - NNW 1023,4 -
23.03.2019 04:00:00 11,9 -1,2 14 8 - - NNE 1023,3 -
23.03.2019 03:00:00 - - - - - - - - -
23.03.2019 02:00:00 - - - - - - - - -
23.03.2019 01:00:00 13,7 -1,1 11 6 - - N 1023,8 -
23.03.2019 00:00:00 - - - - - - - - -
22.03.2019 23:00:00 - - - - - - - - -
22.03.2019 22:00:00 9,8 6,2 4 2 - - ENE 1024,3 -
22.03.2019 21:00:00 11,2 6,9 4 2 - - NW 1024,1 30
22.03.2019 20:00:00 13,4 6,4 7 4 - - ENE 1023,8 30
22.03.2019 19:00:00 14,6 5,9 7 4 - - N 1023,5 30
22.03.2019 18:00:00 15,8 4,6 14 8 - - NNW 1023,8 -
22.03.2019 17:00:00 16,5 4,3 18 10 - - WNW 1023,7 -
22.03.2019 16:00:00 17,0 3,7 - - - - - 1023,9 -
22.03.2019 15:00:00 18,1 1,6 29 16 - - W 1024,5 -
22.03.2019 14:00:00 19,3 0,9 25 14 - - W 1025,0 30
22.03.2019 13:00:00 19,0 1,0 18 10 - - W 1025,6 30
22.03.2019 12:00:00 18,6 2,2 18 10 - - WSW 1026,6 30
22.03.2019 11:00:00 18,2 1,8 11 6 - - SW 1027,2 30
22.03.2019 10:00:00 17,5 0,6 18 10 - - NNE 1027,9 30
22.03.2019 09:00:00 16,1 0,3 14 8 - - NNE 1028,5 -
22.03.2019 08:00:00 13,1 0,9 7 4 - - W 1028,4 30
22.03.2019 07:00:00 10,6 1,1 4 2 - - NW 1028,3 30
22.03.2019 06:00:00 8,8 1,0 0 0 - - N 1028,5 -
22.03.2019 05:00:00 10,6 0,4 7 4 - - NNW 1028,1 -
22.03.2019 04:00:00 8,4 2,0 4 2 - - NE 1028,0 -
22.03.2019 03:00:00 - - - - - - - - -
22.03.2019 02:00:00 - - - - - - - - -
22.03.2019 01:00:00 12,6 1,0 11 6 - - N 1028,1 -
22.03.2019 00:00:00 - - - - - - - - -
21.03.2019 23:00:00 - - - - - - - - -
21.03.2019 22:00:00 14,2 0,5 14 8 - - N 1028,0 -
21.03.2019 21:00:00 14,8 1,7 25 14 - - NNE 1027,2 30
21.03.2019 20:00:00 15,4 1,8 22 12 - - NNE 1026,8 30
21.03.2019 19:00:00 16,4 2,2 18 10 - - NNE 1026,2 30
21.03.2019 18:00:00 16,6 1,9 7 4 - - NNE 1025,9 -
21.03.2019 17:00:00 17,4 4,7 11 6 - - WNW 1025,4 -
21.03.2019 16:00:00 18,5 2,8 18 10 - - W 1025,3 -
21.03.2019 15:00:00 19,5 2,0 11 6 - - WNW 1025,9 -
21.03.2019 14:00:00 20,9 1,5 14 8 - - NNE 1026,0 30
21.03.2019 13:00:00 20,0 1,1 18 10 - - NNE 1026,8 30
21.03.2019 12:00:00 19,0 1,3 18 10 - - NNE 1027,3 30
21.03.2019 11:00:00 17,9 0,6 22 12 - - NNE 1027,9 30
21.03.2019 10:00:00 16,9 3,5 18 10 - - NNE 1028,2 30
21.03.2019 09:00:00 15,4 1,5 18 10 - - NNE 1028,2 30
21.03.2019 08:00:00 12,8 0,2 14 8 - - NNE 1027,5 30
21.03.2019 07:00:00 11,4 1,1 14 8 - - NNE 1027,0 30
21.03.2019 06:00:00 10,6 0,7 7 4 - - NNE 1027,2 -
21.03.2019 05:00:00 11,2 0,4 11 6 - - N 1026,9 -
21.03.2019 04:00:00 11,6 1,0 22 12 - - N 1026,6 -
21.03.2019 03:00:00 - - - - - - - - -
21.03.2019 02:00:00 - - - - - - - - -
21.03.2019 01:00:00 12,1 1,2 22 12 - - NNE 1027,0 -
21.03.2019 00:00:00 - - - - - - - - -
20.03.2019 23:00:00 - - - - - - - - -
20.03.2019 22:00:00 12,3 1,9 11 6 - - NNE 1026,6 -
20.03.2019 21:00:00 12,8 1,4 29 16 - - N 1025,4 30
20.03.2019 20:00:00 13,0 1,1 36 19 - - NNE 1024,9 30

tt = temperature
td = dewpoint
ff = wind speed
fx = gusts
dd = wind direction
ppp = reduced air pressure
vv = visibility

Next stations